Location: Jangalapalle
(16.8036°N, 80.6370°E)
Time: 13:11:37
(UTC+00:00)

Milstar 3 Cent rocket - Pass Details

Date: 05 August 2024
Orbit: 707 x 5145 km, 28.3° (Epoch: 08 September)

Event Time Altitude Azimuth Distance (km) Brightness Sun altitude
Rises 13:52:12 0° 295° (WNW) 3,991 7.9 -10.8°
Reaches altitude 10° 13:54:19 10° 296° (WNW) 3,305 6.8 -11.3°
Maximum altitude 14:02:53 84° 25° (NNE) 2,065 4.1 -13.2°
Enters shadow 14:17:38 19° 113° (ESE) 5,657 5.7 -16.4°
